When you browse on this site, cookies collect data to enhance your experience and personalize the content and advertising you see.
Visit our Privacy Policy to learn more. By continuing to use the site, you agree to this use of cookies and data.
  • In United Kingdom
  • List of Countries
  • For 7 days
  • Water Temperature
  • Weather Map
  • Weather Widgets
  • user-avatar
    Login

    Hourly Weather Pyharivka

    Today, 22 August, Thursday

    Time Temperature Precipitation Wind Pressure Humidity
    00:00 +21°C° 0 mm 1 mps 749 mmHg 77%
    01:00 +21°C° 0 mm 1 mps 749 mmHg 79%
    02:00 +18°C° 0 mm 0 mps 749 mmHg 82%
    03:00 +18°C° 0 mm 0 mps 749 mmHg 83%
    04:00 +18°C° 0 mm 0 mps 749 mmHg 83%
    05:00 +18°C° 0 mm 0 mps 749 mmHg 83%
    06:00 +22°C° 0 mm 1 mps 749 mmHg 78%
    07:00 +23°C° 0 mm 1 mps 750 mmHg 72%
    08:00 +25°C° 0 mm 2 mps 750 mmHg 66%
    09:00 +26°C° 0 mm 3 mps 750 mmHg 65%
    10:00 +27°C° 0 mm 3 mps 750 mmHg 64%
    11:00 +28°C° 0 mm 4 mps 750 mmHg 63%
    12:00 +27°C° 0 mm 4 mps 750 mmHg 64%
    13:00 +27°C° 0 mm 4 mps 751 mmHg 65%
    14:00 +27°C° 0 mm 5 mps 751 mmHg 67%
    15:00 +26°C° 0 mm 5 mps 751 mmHg 69%
    16:00 +25°C° 0 mm 5 mps 751 mmHg 72%
    17:00 +23°C° 0 mm 6 mps 751 mmHg 75%
    18:00 +22°C° 0 mm 5 mps 751 mmHg 77%
    19:00 +20°C° 0 mm 5 mps 751 mmHg 79%
    20:00 +19°C° 0 mm 4 mps 752 mmHg 81%
    21:00 +18°C° 0 mm 4 mps 752 mmHg 82%
    22:00 +18°C° 0 mm 4 mps 752 mmHg 83%
    23:00 +17°C° 0 mm 4 mps 752 mmHg 84%

    Tomorrow, 23 August, Friday

    Time Temperature Precipitation Wind Pressure Humidity
    00:00 +17°C° 0 mm 4 mps 752 mmHg 85%
    01:00 +15°C° 0 mm 4 mps 753 mmHg 86%
    02:00 +15°C° 0 mm 4 mps 753 mmHg 87%
    03:00 +14°C° 0 mm 4 mps 753 mmHg 89%
    04:00 +14°C° 0 mm 4 mps 753 mmHg 90%
    05:00 +14°C° 0 mm 4 mps 752 mmHg 91%
    06:00 +15°C° 0 mm 4 mps 753 mmHg 86%
    07:00 +17°C° 0 mm 4 mps 753 mmHg 81%
    08:00 +17°C° 0 mm 5 mps 753 mmHg 76%
    09:00 +19°C° 0 mm 5 mps 753 mmHg 70%
    10:00 +21°C° 0 mm 5 mps 753 mmHg 65%
    11:00 +22°C° 0 mm 5 mps 754 mmHg 59%
    12:00 +22°C° 0 mm 5 mps 753 mmHg 57%
    13:00 +23°C° 0 mm 4 mps 753 mmHg 55%
    14:00 +23°C° 0 mm 4 mps 753 mmHg 53%
    15:00 +23°C° 0 mm 4 mps 753 mmHg 56%
    16:00 +22°C° 0 mm 3 mps 753 mmHg 60%
    17:00 +22°C° 0 mm 3 mps 753 mmHg 63%
    18:00 +20°C° 0 mm 3 mps 753 mmHg 68%
    19:00 +19°C° 0 mm 3 mps 753 mmHg 73%
    20:00 +17°C° 0 mm 3 mps 753 mmHg 78%
    21:00 +16°C° 0 mm 3 mps 753 mmHg 80%
    22:00 +14°C° 0 mm 3 mps 753 mmHg 83%
    23:00 +14°C° 0 mm 3 mps 753 mmHg 86%

    Day after tomorrow, 24 August, Saturday

    Time Temperature Precipitation Wind Pressure Humidity
    00:00 +13°C° 0 mm 3 mps 753 mmHg 87%
    01:00 +14°C° 0 mm 2 mps 753 mmHg 89%
    02:00 +13°C° 0 mm 2 mps 753 mmHg 90%
    03:00 +13°C° 0 mm 2 mps 753 mmHg 91%
    04:00 +12°C° 0 mm 2 mps 753 mmHg 91%
    05:00 +12°C° 0 mm 2 mps 753 mmHg 92%
    06:00 +14°C° 0 mm 2 mps 753 mmHg 85%
    07:00 +16°C° 0 mm 3 mps 754 mmHg 77%
    08:00 +18°C° 0 mm 3 mps 754 mmHg 69%
    09:00 +20°C° 0 mm 3 mps 754 mmHg 61%
    10:00 +21°C° 0 mm 2 mps 753 mmHg 53%
    11:00 +24°C° 0 mm 2 mps 753 mmHg 45%
    12:00 +24°C° 0 mm 2 mps 753 mmHg 43%
    13:00 +25°C° 0 mm 2 mps 753 mmHg 40%
    14:00 +26°C° 0 mm 2 mps 753 mmHg 38%
    15:00 +25°C° 0 mm 2 mps 752 mmHg 42%
    16:00 +25°C° 0 mm 2 mps 752 mmHg 47%
    17:00 +24°C° 0 mm 2 mps 752 mmHg 51%
    18:00 +21°C° 0 mm 2 mps 752 mmHg 57%
    19:00 +19°C° 0 mm 2 mps 752 mmHg 63%
    20:00 +17°C° 0 mm 2 mps 752 mmHg 69%
    21:00 +16°C° 0 mm 1 mps 752 mmHg 72%
    22:00 +15°C° 0 mm 1 mps 752 mmHg 75%
    23:00 +15°C° 0 mm 1 mps 752 mmHg 78%

    25 August, Sunday

    Time Temperature Precipitation Wind Pressure Humidity
    00:00 +14°C° 0 mm 1 mps 752 mmHg 80%
    01:00 +14°C° 0 mm 1 mps 752 mmHg 83%
    02:00 +14°C° 0 mm 1 mps 752 mmHg 86%
    03:00 +13°C° 0 mm 1 mps 752 mmHg 88%
    04:00 +13°C° 0 mm 1 mps 752 mmHg 89%
    05:00 +13°C° 0 mm 1 mps 752 mmHg 91%
    06:00 +15°C° 0 mm 2 mps 752 mmHg 84%
    07:00 +17°C° 0 mm 2 mps 752 mmHg 77%
    08:00 +19°C° 0 mm 2 mps 752 mmHg 71%
    09:00 +21°C° 0 mm 2 mps 752 mmHg 66%
    10:00 +22°C° 0 mm 3 mps 752 mmHg 60%
    11:00 +25°C° 0 mm 3 mps 752 mmHg 55%
    12:00 +25°C° 0 mm 3 mps 752 mmHg 55%
    13:00 +26°C° 0 mm 3 mps 752 mmHg 55%
    14:00 +26°C° 0 mm 3 mps 752 mmHg 55%
    15:00 +26°C° 0 mm 3 mps 752 mmHg 57%
    16:00 +25°C° 0 mm 3 mps 752 mmHg 60%
    17:00 +25°C° 0 mm 3 mps 752 mmHg 62%
    18:00 +22°C° 0 mm 3 mps 752 mmHg 67%
    19:00 +20°C° 0 mm 3 mps 752 mmHg 73%
    20:00 +18°C° 0 mm 3 mps 752 mmHg 79%
    21:00 +17°C° 0 mm 3 mps 753 mmHg 80%
    22:00 +16°C° 0 mm 3 mps 753 mmHg 81%
    23:00 +14°C° 0 mm 3 mps 753 mmHg 82%

    26 August, Monday

    Time Temperature Precipitation Wind Pressure Humidity
    00:00 +13°C° 0 mm 3 mps 754 mmHg 84%
    01:00 +14°C° 0 mm 2 mps 754 mmHg 86%
    02:00 +13°C° 0 mm 2 mps 754 mmHg 88%
    03:00 +13°C° 0 mm 2 mps 754 mmHg 90%
    04:00 +13°C° 0 mm 2 mps 754 mmHg 92%
    05:00 +12°C° 0 mm 2 mps 754 mmHg 93%
    06:00 +14°C° 0 mm 2 mps 754 mmHg 86%
    07:00 +16°C° 0 mm 3 mps 755 mmHg 78%
    08:00 +18°C° 0 mm 3 mps 755 mmHg 71%
    09:00 +19°C° 0 mm 3 mps 755 mmHg 64%
    10:00 +20°C° 0 mm 3 mps 755 mmHg 57%
    11:00 +22°C° 0 mm 3 mps 755 mmHg 51%
    12:00 +22°C° 0 mm 3 mps 755 mmHg 48%
    13:00 +24°C° 0 mm 3 mps 755 mmHg 46%
    14:00 +24°C° 0 mm 3 mps 754 mmHg 44%
    15:00 +24°C° 0 mm 2 mps 754 mmHg 48%
    16:00 +23°C° 0 mm 2 mps 754 mmHg 51%
    17:00 +23°C° 0 mm 2 mps 753 mmHg 54%
    18:00 +20°C° 0 mm 2 mps 753 mmHg 59%
    19:00 +18°C° 0 mm 2 mps 753 mmHg 64%
    20:00 +16°C° 0 mm 1 mps 753 mmHg 69%
    21:00 +15°C° 0 mm 1 mps 753 mmHg 71%
    22:00 +15°C° 0 mm 1 mps 753 mmHg 72%
    23:00 +14°C° 0 mm 1 mps 753 mmHg 74%

    27 August, Tuesday

    Time Temperature Precipitation Wind Pressure Humidity
    00:00 +14°C° 0 mm 1 mps 753 mmHg 76%
    01:00 +13°C° 0 mm 1 mps 752 mmHg 78%
    02:00 +13°C° 0 mm 1 mps 752 mmHg 79%
    03:00 +13°C° 0 mm 1 mps 752 mmHg 81%
    04:00 +12°C° 0 mm 1 mps 752 mmHg 83%
    05:00 +12°C° 0 mm 1 mps 752 mmHg 84%
    06:00 +13°C° 0 mm 0 mps 752 mmHg 77%
    07:00 +15°C° 0 mm 0 mps 751 mmHg 70%
    08:00 +18°C° 0 mm 0 mps 751 mmHg 63%
    09:00 +21°C° 0 mm 1 mps 751 mmHg 58%
    10:00 +23°C° 0 mm 1 mps 751 mmHg 53%
    11:00 +24°C° 0 mm 1 mps 751 mmHg 48%
    12:00 +24°C° 0 mm 1 mps 750 mmHg 46%
    13:00 +25°C° 0 mm 2 mps 750 mmHg 45%
    14:00 +25°C° 0 mm 2 mps 749 mmHg 43%
    15:00 +24°C° 0 mm 2 mps 749 mmHg 49%
    16:00 +24°C° 0 mm 2 mps 749 mmHg 54%
    17:00 +23°C° 0 mm 2 mps 748 mmHg 60%
    18:00 +20°C° 0 mm 2 mps 748 mmHg 66%
    19:00 +19°C° 0 mm 2 mps 748 mmHg 72%
    20:00 +17°C° 0 mm 2 mps 748 mmHg 77%
    21:00 +17°C° 0 mm 2 mps 748 mmHg 81%
    22:00 +16°C° 0 mm 2 mps 748 mmHg 85%
    23:00 +15°C° 0 mm 2 mps 748 mmHg 89%
    Show more